This demonstration page uses our WeatherBlox Daily Observations layout. Learn more.

Left ArrowRight Arrow

41.86663, -103.66717

Hourly Observations for December 9, 2022

Temp ( °F °C ) Dew Point ( °F °C ) Humidity (%) Winds ( mph kmh ) Pressure ( in mb ) Visibility ( mi km ) Precip ( " mm )
12:53 am 00:53 Clear 12 -11.1 6 -14.4 76 76 Calm 30.24 1024 10 16 0.00 0.00
1:53 am 01:53 Clear 11 -11.7 5 -15 76 76 NNE 6 9 30.23 1024 10 16 0.00 0.00
2:53 am 02:53 Clear 8 -13.3 3 -16.1 79 79 NNE 5 7 30.24 1024 10 16 0.00 0.00
3:53 am 03:53 Clear 10 -12.2 4 -15.6 76 76 Calm 30.21 1023 10 16 0.00 0.00
4:53 am 04:53 Clear 8 -13.3 2 -16.7 75 75 Calm 30.21 1023 10 16 0.00 0.00
5:53 am 05:53 Clear 5 -15 -1 -18.3 76 76 E 6 9 30.22 1023 10 16 0.00 0.00
6:53 am 06:53 Clear 6 -14.4 2 -16.7 83 83 NE 7 11 30.23 1024 10 16 0.00 0.00
7:53 am 07:53 Sunny 8 -13.3 3 -16.1 79 79 E 6 9 30.23 1024 10 16 0.00 0.00
8:53 am 08:53 Sunny 17 -8.3 10 -12.2 73 73 SE 8 13 30.19 1023 10 16 0.00 0.00
9:53 am 09:53 Sunny 22 -5.6 11 -11.7 62 62 E 9 15 30.16 1021 10 16 0.00 0.00
10:53 am 10:53 Sunny 24 -4.4 14 -10 65 65 ESE 8 13 30.12 1020 10 16 0.00 0.00
11:53 am 11:53 Sunny 26 -3.3 14 -10 60 60 E 7 11 30.10 1019 10 16 0.00 0.00
12:53 pm 12:53 Sunny 31 -0.6 19 -7.2 61 61 ESE 9 15 30.05 1018 10 16 0.00 0.00
1:53 pm 13:53 Sunny 33 0.6 20 -6.7 58 58 E 5 7 30.03 1017 10 16 0.00 0.00
2:53 pm 14:53 Sunny 35 1.7 22 -5.6 58 58 ESE 5 7 30.02 1017 10 16 0.00 0.00
3:53 pm 15:53 Sunny 31 -0.6 21 -6.1 66 66 NNE 5 7 30.04 1017 10 16 0.00 0.00
4:53 pm 16:53 Clear 20 -6.7 15 -9.4 81 81 W 3 6 30.10 1019 10 16 0.00 0.00
5:53 pm 17:53 Clear 19 -7.2 13 -10.6 77 77 WNW 3 6 30.12 1020 10 16 0.00 0.00
6:53 pm 18:53 Clear 25 -3.9 16 -8.9 68 68 NNW 6 9 30.12 1020 10 16 0.00 0.00
7:53 pm 19:53 Clear 23 -5 14 -10 68 68 NW 5 7 30.13 1020 10 16 0.00 0.00
8:53 pm 20:53 Clear 35 1.7 20 -6.7 54 54 W 17 28 30.08 1019 10 16 0.00 0.00
9:53 pm 21:53 Clear 37 2.8 20 -6.7 50 50 W 18 30 30.07 1018 10 16 0.00 0.00
10:53 pm 22:53 Partly Cloudy 37 2.8 19 -7.2 48 48 W 22 35 30.08 1019 10 16 0.00 0.00
11:53 pm 23:53 Clear 34 1.1 17 -8.3 49 49 W 18 30 30.11 1020 10 16 0.00 0.00

Powered by AerisWeather